Rayong, Thailand

10:06 AM +07 on August 24, 2017 (GMT +0700)
U-Taphao International

Weather History for VTBU - October, 2011

Change the Weather History Date:

Thursday, October 27, 2011

  Actual Average Record
Temperature  
Mean Temperature 84 °F -  
Max Temperature 91 °F 88 °F 95 °F (2012)
Min Temperature 77 °F 75 °F 73 °F (1996)
Cooling Degree Days 19    
Growing Degree Days 34 (Base 50)    
Moisture  
Dew Point 77 °F    
Average Humidity 82    
Maximum Humidity 94    
Minimum Humidity 62    
Precipitation  
Precipitation 0.00 in - - ()
Sea Level Pressure  
Sea Level Pressure 29.81 in    
Wind  
Wind Speed 4 mph ()    
Max Wind Speed 9 mph    
Max Gust Speed -    
Visibility 3.2 miles    
Events Rain , Thunderstorm    
Averages and records for this station are not official NWS values.
T = Trace of Precipitation, MM = Missing Value Source: Averaged Metar Reports

Daily Weather History Graph

Daily Weather History Graph

Search for Another Location

Airport or City:

Trip Planner

Search our weather history database for the weather conditions in past years. The results will help you decide how hot, cold, wet, or windy it might be!

Date:

Astronomy

Oct. 27, 2011 Rise Set
Actual Time 6:06 AM +07 5:50 PM +07
Civil Twilight 5:44 AM +07 6:12 PM +07
Nautical Twilight 5:19 AM +07 6:37 PM +07
Astronomical Twilight 4:54 AM +07 7:02 PM +07
Moon 6:16 AM +07 (10/27) 6:11 PM +07 (10/27)
Length of Visible Light 12h 27m
Length of Day
11h 43m
New Moon, 0% of the Moon is Illuminated
Oct 27
New Moon
Nov 2
First Quarter
Nov 11
Full
Nov 18
Last Quarter
Nov 25
New

Hourly Weather History & Observations

Time (+07) Temp. Heat Index Dew Point Humidity Pressure Visibility Wind Dir Wind Speed Gust Speed Precip Events Conditions
12:00 AM 78.8 °F - 77.0 °F 94% 29.83 in 3.7 mi North 3.5 mph - N/A   Mostly Cloudy
12:30 AM 78.8 °F - 77.0 °F 94% 29.83 in 3.7 mi North 4.6 mph - N/A   Mostly Cloudy
1:00 AM 78.8 °F - 75.2 °F 89% 29.83 in 3.7 mi North 4.6 mph - N/A   Mostly Cloudy
1:30 AM 78.8 °F - 75.2 °F 89% 29.83 in 3.7 mi North 4.6 mph - N/A   Mostly Cloudy
2:00 AM 78.8 °F - 75.2 °F 89% 29.80 in 3.7 mi NNW 4.6 mph - N/A   Mostly Cloudy
3:00 AM 78.8 °F - 75.2 °F 89% 29.80 in 3.7 mi North 4.6 mph - N/A   Mostly Cloudy
3:30 AM 78.8 °F - 75.2 °F 89% 29.80 in 3.7 mi North 4.6 mph - N/A   Mostly Cloudy
4:00 AM 78.8 °F - 75.2 °F 89% 29.80 in 3.7 mi NNW 5.8 mph - N/A   Mostly Cloudy
4:30 AM 78.8 °F - 75.2 °F 89% 29.80 in 3.7 mi NNW 4.6 mph - N/A   Mostly Cloudy
5:30 AM 78.8 °F - 75.2 °F 89% 29.80 in 3.7 mi NNW 6.9 mph - N/A   Mostly Cloudy
6:00 AM 78.8 °F - 77.0 °F 94% 29.80 in 3.7 mi NNW 3.5 mph - N/A   Mostly Cloudy
6:30 AM 77.0 °F - 75.2 °F 94% 29.83 in 3.7 mi NW 4.6 mph - N/A   Mostly Cloudy
7:00 AM 78.8 °F - 75.2 °F 89% 29.83 in 3.7 mi NW 4.6 mph - N/A   Mostly Cloudy
7:30 AM 78.8 °F - 75.2 °F 89% 29.83 in 3.7 mi NNE 4.6 mph - N/A   Mostly Cloudy
8:00 AM 80.6 °F 86.2 °F 75.2 °F 84% 29.83 in 3.7 mi NNE 4.6 mph - N/A   Mostly Cloudy
8:30 AM 84.2 °F 94.1 °F 77.0 °F 79% 29.86 in 3.7 mi NNW 4.6 mph - N/A   Mostly Cloudy
9:00 AM 84.2 °F 92.3 °F 75.2 °F 74% 29.86 in 3.7 mi North 4.6 mph - N/A   Mostly Cloudy
9:30 AM 86.0 °F 95.1 °F 75.2 °F 70% 29.86 in 4.3 mi NE 6.9 mph - N/A   Mostly Cloudy
10:00 AM 89.6 °F 99.8 °F 75.2 °F 62% 29.86 in 4.3 mi ENE 9.2 mph - N/A   Mostly Cloudy
10:30 AM 87.8 °F 97.6 °F 75.2 °F 66% 29.86 in 4.3 mi ENE 6.9 mph - N/A   Mostly Cloudy
11:00 AM 87.8 °F 97.6 °F 75.2 °F 66% 29.86 in 4.3 mi NE 6.9 mph - N/A   Mostly Cloudy
11:30 AM 89.6 °F 99.8 °F 75.2 °F 62% 29.83 in 4.3 mi East 6.9 mph - N/A   Mostly Cloudy
12:00 PM 91.4 °F 105.1 °F 77.0 °F 63% 29.83 in 4.3 mi East 3.5 mph - N/A   Mostly Cloudy
12:30 PM 91.4 °F 105.1 °F 77.0 °F 63% 29.83 in 4.3 mi SSE 6.9 mph - N/A   Mostly Cloudy
1:00 PM 91.4 °F 105.1 °F 77.0 °F 63% 29.80 in - SSE 6.9 mph - N/A   Unknown
1:30 PM 91.4 °F 105.1 °F 77.0 °F 63% 29.80 in 4.3 mi SSE 9.2 mph - N/A   Mostly Cloudy
2:00 PM 91.4 °F 105.1 °F 77.0 °F 63% 29.77 in 4.3 mi SSE 9.2 mph - N/A   Mostly Cloudy
2:30 PM 91.4 °F 105.1 °F 77.0 °F 63% 29.77 in 3.7 mi SSE 5.8 mph - N/A   Mostly Cloudy
3:00 PM 91.4 °F 105.1 °F 77.0 °F 63% 29.74 in 3.7 mi South 5.8 mph - N/A   Mostly Cloudy
3:30 PM 89.6 °F 102.2 °F 77.0 °F 66% 29.74 in 3.7 mi SSE 4.6 mph - N/A Thunderstorm Thunderstorm
4:00 PM 84.2 °F 96.1 °F 78.8 °F 84% 29.77 in 1.9 mi South 3.5 mph - N/A Rain , Thunderstorm Light Thunderstorms and Rain
4:30 PM 84.2 °F 98.3 °F 80.6 °F 89% 29.77 in 2.5 mi NNW 3.5 mph - N/A Thunderstorm Thunderstorm
5:00 PM 82.4 °F 92.4 °F 78.8 °F 89% 29.77 in 2.5 mi WNW 4.6 mph - N/A   Mostly Cloudy
5:30 PM 87.8 °F 102.5 °F 78.8 °F 75% 29.77 in 2.5 mi West 3.5 mph - N/A   Mostly Cloudy
6:00 PM 82.4 °F 92.4 °F 78.8 °F 89% 29.77 in 1.9 mi NNW 2.3 mph - N/A   Mostly Cloudy
6:30 PM 82.4 °F 92.4 °F 78.8 °F 89% 29.77 in 1.9 mi NNE 3.5 mph - N/A   Mostly Cloudy
7:00 PM 82.4 °F 92.4 °F 78.8 °F 89% 29.77 in 1.9 mi NE 2.3 mph - N/A   Mostly Cloudy
7:30 PM 80.6 °F 88.1 °F 78.8 °F 94% 29.80 in 1.9 mi NNW 3.5 mph - N/A   Mostly Cloudy
8:00 PM 80.6 °F 88.1 °F 78.8 °F 94% 29.80 in 1.9 mi North 3.5 mph - N/A   Mostly Cloudy
8:30 PM 80.6 °F 88.1 °F 78.8 °F 94% 29.80 in 1.9 mi North 3.5 mph - N/A   Mostly Cloudy
9:00 PM 80.6 °F 88.1 °F 78.8 °F 94% 29.83 in 1.9 mi North 3.5 mph - N/A   Mostly Cloudy
9:30 PM 80.6 °F 88.1 °F 78.8 °F 94% 29.83 in 1.9 mi NNW 3.5 mph - N/A   Mostly Cloudy
10:00 PM 80.6 °F 88.1 °F 78.8 °F 94% 29.83 in 1.9 mi North 3.5 mph - N/A   Mostly Cloudy
10:30 PM 80.6 °F 87.1 °F 77.0 °F 89% 29.83 in 1.9 mi NNW 2.3 mph - N/A   Mostly Cloudy
11:00 PM 78.8 °F - 77.0 °F 94% 29.83 in 1.9 mi NNW 2.3 mph - N/A   Mostly Cloudy
11:30 PM 78.8 °F - 77.0 °F 94% 29.83 in 1.9 mi North 3.5 mph - N/A   Mostly Cloudy